SCP
0 0 0 0 0 0 0 0 0 0 0 0 0 0 0 -0 -0 -0 0 0 0 0 0 0 0 0 0 0 0 0 0 0 0 0 0 0 0 0
0 0 0 0 0 0 0 0 0 0 0 0 0 0 0 -0 -0 -0 0 0 0 0 0 0 0 0 0 0 0 0 0 0 0 0 0 0 0 0
0 0 0 0 0 0 0 0 0 0 0 0 0 0 0 0 0 0 0 0 0 0 0 0 0 0 0 0 0 0 0 0 0 0 0 0 0 0
0 0 0 0 0 0 0 0 0 0 0 0 0 0 0 0 0 0 0 0 0 0 0 0 0 0 0 0 0 0 0 0 0 0 0 0 0 0
0 0 0 0 0 0 0 0 0 0 0 0 0 0 0 0 0 0 0 0 0 0 0 0 0 0 0 0 0 0 0 0 0 0 0 0 0 0
0 0 0 0 0 0 0 0 0 0 0 0 0 0 0 0 0 0 0 0 0 0 0 0 0 0 0 0 0 0 0 0 0 0 0 0 0 0
0 0 0 0 0 0 0 0 0 0 0 0 0 0 0 0 0 0 0 0 0 0 0 0 0 0 0 0 0 0 0 0 0 0 0 0 0 0
0 0 0 0 0 0 0 0 0 0 0 0 0 0 0 0 0 0 0 0 0 -0 -0 -0 0 0 0 0 0 0 0 0 0 0 0 0 0 0
0 0 0 0 0 0 0 0 0 0 0 0 0 0 0 0 0 0 0 0 0 0 0 0 0 0 0 0 0 0 0 0 0 0 0 0 0 0
0 0 0 0 0 0 0 0 0 0 0 0 0 0 0 0 0 0 0 0 0 0 0 0 0 0 0 0 0 0 0 0 0 0 0 0 0 0
0 0 0 0 0 0 0 0 0 0 0 0 0 0 0 0 0 0 0 0 0 0 0 0 0 0 0 0 0 0 0 0 0 0 0 0 0 0
0 0 0 0 0 0 0 0 0 0 0 0 0 0 0 0 0 0 0 0 0 0 0 0 0 0 0 0 0 0 0 0 0 0 0 0 0 0
-0 -0 0 0 0 0 0 0 0 0 0 0 0 0 0 0 0 0 0 0 0 0 0 0 0 0 0 0 0 0 0 0 0 0 0 0 0 0
-0 -0 0 0 0 0 0 0 0 0 0 0 0 0 0 0 0 0 0 0 0 0 0 0 0 0 0 0 0 0 0 0 0 0 0 0 0 0
0 0 0 0 0 0 0 0 0 0 0 0 0 0 0 0 0 0 0 0 0 0 0 0 0 0 0 0 0 0 0 -0 0 0 0 0 0 0
0 0 0 0 0 0 -0 0 0 0 0 0 0 0 0 0 0 0 0 0 0 0 0 0 0 0 0 0 0 0 0 -0 0 0 0 0 0 0
0 0 0 0 0 -0 -0 0 0 0 0 0 0 0 0 0 0 0 0 0 0 0 0 0 0 0 0 0 -0 -0 -0 -0 0 0 0 0 0 0
0 0 0 0 0 0 0 0 0 0 0 0 0 0 0 0 0 0 0 0 0 0 0 0 0 0 0 -0 -0 -0 -0 -0 0 0 0 0 0 0
0 0 0 0 0 0 0 0 0 0 0 0 0 0 0 0 0 0 0 0 0 0 0 0 0 0 0 -0 -0 -0 -0 0 0 0 0 0 0 0
0 0 0 0 0 0 0 0 0 0 0 0 0 0 0 0 0 0 0 0 0 0 0 0 0 0 0 0 0 0 0 0 0 0 0 0 0 0
0 0 0 0 0 0 0 0 0 0 0 0 0 0 0 0 0 0 0 0 0 0 0 0 0 0 0 0 0 0 0 0 0 0 0 0 0 0
0 0 0 0 0 0 0 0 0 0 0 0 0 0 0 0 0 0 0 0 0 0 0 0 0 0 0 0 0 0 0 0 0 0 0 0 0 0
0 0 0 0 0 0 0 0 0 0 0 0 0 0 0 0 0 0 0 0 0 0 0 0 0 0 0 0 0 0 0 0 0 0 0 0 0 0
Wind_Speed
7 7 6 5 5 4 4 4 5 4 1 1 1 1 1 2 3 2 3 6 6 5 5 4 4 4 4 5 6 6 6 7 8 9 10 11 11 11
6 8 7 5 5 5 4 3 4 5 3 1 2 2 1 2 3 2 3 6 6 6 6 5 4 4 4 5 5 6 6 7 7 9 10 10 11 11
7 8 7 6 6 5 5 5 4 4 4 0 1 1 1 2 3 3 3 2 3 6 6 5 5 4 4 4 5 5 5 6 7 8 9 10 10 11
7 8 7 7 7 6 5 6 4 3 4 2 1 2 2 2 2 3 3 2 2 4 4 5 5 5 5 5 4 4 4 5 6 7 8 9 10 11
6 7 6 7 7 5 6 5 4 4 3 3 1 2 2 2 3 3 3 3 3 2 3 4 5 5 5 5 5 4 4 4 5 6 7 8 9 10
6 6 5 6 5 5 5 4 4 4 4 3 2 2 2 2 3 3 4 3 3 3 3 3 3 4 5 5 5 5 4 4 5 5 6 7 8 9
5 5 4 6 6 4 3 3 3 3 3 3 2 2 2 3 2 2 2 3 3 2 3 3 2 2 3 4 5 5 5 5 5 5 6 6 7 8
4 4 4 6 7 7 6 4 3 3 2 2 1 1 1 1 1 1 2 3 3 3 2 3 1 2 3 3 5 6 5 5 5 5 5 6 7 8
4 3 4 5 6 5 6 7 5 3 4 4 2 2 2 2 1 2 1 1 3 3 1 3 2 3 3 3 6 6 6 6 5 5 6 6 7 8
4 4 4 4 5 5 5 5 5 4 1 2 3 4 4 4 3 2 2 2 4 3 1 1 3 3 3 3 5 6 6 6 6 6 6 7 7 7
4 3 3 3 6 7 5 5 5 5 4 4 4 6 7 6 4 1 0 2 2 3 1 1 2 3 3 3 4 6 7 7 8 8 8 8 7 6
3 3 4 3 5 5 3 3 4 4 6 7 6 5 4 3 4 4 3 2 1 3 3 1 2 1 3 4 3 3 4 6 8 9 9 9 7 3
2 2 3 5 6 5 2 0 2 4 3 4 4 4 4 3 2 2 4 4 3 4 4 2 2 1 1 4 4 3 2 3 3 4 7 9 8 4
1 2 4 7 7 7 4 4 5 4 2 3 3 3 3 3 4 4 3 5 6 7 5 3 3 3 2 2 4 4 3 3 2 3 3 5 7 7
2 5 7 7 6 5 6 7 5 3 2 2 3 3 3 4 3 4 4 3 3 4 4 4 4 3 3 3 3 3 3 4 2 3 3 3 3 2
4 6 7 7 5 5 5 4 3 1 1 1 2 3 3 3 3 2 3 3 3 5 5 2 3 4 3 3 3 3 3 3 3 2 3 3 3 3
3 3 4 4 4 4 4 4 3 3 3 2 2 3 3 4 3 3 2 2 2 3 5 5 3 2 4 3 2 3 3 3 3 2 2 3 4 3
3 3 3 2 2 2 3 3 3 3 3 2 2 2 3 3 3 3 2 2 2 3 3 3 3 4 4 3 5 3 3 3 3 2 1 2 5 4
2 1 1 1 1 2 2 1 2 2 2 2 3 3 3 3 3 3 3 3 3 3 3 2 1 0 1 4 6 4 4 3 2 3 2 3 4 5
1 0 1 1 1 1 2 2 2 3 3 3 3 3 3 3 3 4 4 4 3 3 4 3 2 2 4 4 4 5 5 5 3 3 3 2 3 5
1 1 1 0 1 1 1 2 2 2 2 2 3 4 4 3 4 4 5 6 4 3 4 4 5 5 3 0 2 5 5 6 8 5 3 1 3 3
1 0 0 1 1 1 1 2 2 2 3 3 3 3 4 3 4 5 5 5 4 3 4 4 5 3 1 1 2 4 5 6 4 7 9 8 4 3
2 1 1 1 1 1 1 2 2 2 2 2 3 3 4 4 4 4 5 5 4 4 4 4 5 4 2 1 2 3 4 4 4 4 5 6 11 14
Wind_Direction
69 67 64 53 55 63 83 121 133 128 114 256 272 281 248 236 251 245 258 270 269 269 270 273 289 308 326 334 340 345 347 349 350 351 351 349 348 346
68 67 61 53 54 53 64 72 97 126 133 216 228 248 260 262 255 256 266 277 272 267 264 265 271 282 300 317 328 333 336 338 340 343 345 345 344 343
61 66 60 56 57 49 55 65 69 94 111 6 301 300 329 315 322 319 297 285 282 271 265 259 262 269 282 296 309 320 324 327 332 336 339 341 343 344
65 64 56 61 54 48 54 58 61 73 107 98 349 349 339 320 325 333 339 336 300 287 272 259 259 265 273 280 287 297 305 315 325 330 334 336 339 340
71 71 64 64 57 51 56 54 52 60 76 94 34 358 347 354 3 351 351 346 323 311 286 272 269 267 271 273 271 273 285 299 314 324 329 332 335 337
67 71 68 71 70 62 58 52 59 59 59 69 50 13 359 346 24 5 348 338 329 337 338 311 288 281 275 271 267 269 278 290 302 313 320 325 330 332
61 62 66 70 69 65 70 63 71 71 68 68 50 25 3 2 353 332 339 324 318 331 336 326 320 310 292 281 273 270 271 280 291 301 309 317 322 324
73 62 58 45 38 39 42 58 106 115 113 100 75 42 299 291 308 332 346 2 324 313 350 311 325 297 282 264 264 265 267 271 281 292 302 312 316 319
79 71 57 39 32 26 25 35 38 56 155 152 167 223 238 242 260 322 311 265 257 276 353 304 313 296 284 275 268 265 262 264 271 282 294 305 313 319
79 87 76 34 21 31 43 39 28 18 34 191 214 233 237 231 208 222 250 288 290 284 171 283 303 296 299 301 286 271 267 267 270 277 288 296 305 314
62 71 74 48 26 45 52 34 15 354 352 346 276 261 261 252 215 175 344 33 336 305 301 209 286 306 306 296 288 280 275 273 271 273 278 284 289 306
35 28 34 34 27 44 52 38 13 334 337 342 346 339 323 305 221 190 183 173 240 285 276 212 279 332 321 297 291 292 288 280 276 274 273 274 278 289
30 354 333 346 358 10 28 24 297 306 317 331 335 337 340 336 309 237 202 187 199 245 248 189 236 233 233 291 303 289 266 269 289 283 277 273 269 253
6 319 308 326 338 345 348 326 341 5 11 6 0 343 333 320 305 293 252 225 219 232 247 191 210 207 210 278 290 299 298 269 257 270 277 284 278 267
329 321 329 336 342 343 343 348 360 24 24 15 348 313 291 289 306 322 326 320 295 264 251 209 204 208 188 218 258 279 299 298 274 269 278 271 265 261
351 341 355 15 25 5 354 3 18 30 78 335 305 307 321 339 345 342 335 340 346 324 318 292 220 198 217 231 226 260 259 274 291 285 279 282 273 244
346 5 17 16 14 8 5 7 12 19 19 355 355 352 348 347 335 332 335 343 343 309 311 319 325 243 222 211 235 256 264 272 267 276 299 300 286 264
50 30 9 9 9 3 3 356 356 354 347 352 359 355 346 339 330 329 338 335 314 295 290 293 329 351 350 300 220 230 261 263 274 274 233 275 292 287
66 26 350 337 341 350 352 343 329 323 335 359 2 351 341 337 339 336 337 333 322 306 294 287 291 119 341 304 294 225 212 260 280 289 255 224 255 278
60 211 266 288 333 353 350 344 340 349 3 8 5 359 355 347 343 337 330 323 312 309 313 313 287 223 209 231 263 282 232 216 236 258 270 270 268 282
332 309 272 273 8 16 10 12 21 22 15 13 10 3 356 352 340 330 326 327 325 312 310 297 280 282 233 197 311 300 290 244 215 213 224 267 307 319
247 60 76 111 85 57 44 43 44 32 15 11 356 349 343 342 333 327 326 323 311 296 288 289 308 339 34 334 285 283 297 311 292 245 228 204 196 228
187 158 144 128 106 93 81 72 66 25 2 349 341 334 334 330 324 322 321 321 316 313 314 319 330 344 336 302 287 289 301 313 329 338 314 269 239 245